When you browse on this site, cookies collect data to enhance your experience and personalize the content and advertising you see.
Visit our Privacy Policy to learn more. By continuing to use the site, you agree to this use of cookies and data.
  • In Hungary
  • List of Countries
  • For 7 days
  • Water Temperature
  • Satellite Maps
  • Weather Map
  • News
  • Weather Widgets
  • user-avatar
    Login

    Hourly Weather Ciutadella

    Today, 18 November, Sunday

    Time Temperature Precipitation Wind Pressure Humidity
    00:00 +14°C° 0 mm 5 mps 758 mmHg 76%
    01:00 +14°C° 0 mm 5 mps 758 mmHg 76%
    02:00 +14°C° 0 mm 5 mps 757 mmHg 76%
    03:00 +14°C° 0 mm 5 mps 757 mmHg 76%
    04:00 +14°C° 0.1 mm 5 mps 757 mmHg 77%
    05:00 +14°C° 0.1 mm 5 mps 757 mmHg 78%
    06:00 +14°C° 0 mm 6 mps 757 mmHg 77%
    07:00 +15°C° 0.2 mm 6 mps 757 mmHg 76%
    08:00 +15°C° 0.2 mm 6 mps 757 mmHg 75%
    09:00 +15°C° 0.2 mm 7 mps 757 mmHg 74%
    10:00 +16°C° 0.3 mm 7 mps 757 mmHg 71%
    11:00 +16°C° 0.3 mm 8 mps 757 mmHg 69%
    12:00 +17°C° 0 mm 6 mps 757 mmHg 66%
    13:00 +16°C° 0.2 mm 7 mps 756 mmHg 68%
    14:00 +16°C° 0.2 mm 7 mps 756 mmHg 69%
    15:00 +16°C° 0.2 mm 8 mps 756 mmHg 71%
    16:00 +16°C° 0.2 mm 8 mps 755 mmHg 72%
    17:00 +15°C° 0.2 mm 8 mps 755 mmHg 73%
    18:00 +15°C° 0.2 mm 8 mps 755 mmHg 74%
    19:00 +15°C° 0.1 mm 9 mps 755 mmHg 74%
    20:00 +15°C° 0.1 mm 9 mps 755 mmHg 74%
    21:00 +15°C° 0.1 mm 9 mps 755 mmHg 74%
    22:00 +15°C° 0.2 mm 9 mps 754 mmHg 75%
    23:00 +15°C° 0.2 mm 9 mps 754 mmHg 75%

    Tomorrow, 19 November, Monday

    Time Temperature Precipitation Wind Pressure Humidity
    00:00 +15°C° 0.2 mm 9 mps 753 mmHg 76%
    01:00 +15°C° 0.7 mm 8 mps 753 mmHg 79%
    02:00 +15°C° 0.7 mm 8 mps 752 mmHg 81%
    03:00 +15°C° 0.7 mm 8 mps 751 mmHg 83%
    04:00 +15°C° 1.2 mm 8 mps 751 mmHg 84%
    05:00 +14°C° 1.2 mm 7 mps 750 mmHg 85%
    06:00 +14°C° 1.2 mm 7 mps 750 mmHg 87%
    07:00 +14°C° 0.8 mm 7 mps 750 mmHg 85%
    08:00 +13°C° 0.8 mm 8 mps 749 mmHg 84%
    09:00 +13°C° 0.8 mm 8 mps 749 mmHg 83%
    10:00 +13°C° 0.3 mm 8 mps 749 mmHg 82%
    11:00 +13°C° 0.3 mm 8 mps 748 mmHg 82%
    12:00 +13°C° 0.3 mm 8 mps 748 mmHg 81%
    13:00 +14°C° 0.7 mm 7 mps 748 mmHg 81%
    14:00 +14°C° 0.7 mm 7 mps 748 mmHg 80%
    15:00 +14°C° 0.7 mm 6 mps 747 mmHg 80%
    16:00 +14°C° 0.1 mm 6 mps 747 mmHg 79%
    17:00 +14°C° 0.1 mm 5 mps 748 mmHg 79%
    18:00 +14°C° 0.1 mm 5 mps 748 mmHg 78%
    19:00 +13°C° 0 mm 5 mps 748 mmHg 78%
    20:00 +13°C° 0 mm 4 mps 748 mmHg 78%
    21:00 +13°C° 0 mm 4 mps 748 mmHg 78%
    22:00 +13°C° 0 mm 3 mps 749 mmHg 77%
    23:00 +13°C° 0 mm 3 mps 749 mmHg 77%

    Day after tomorrow, 20 November, Tuesday

    Time Temperature Precipitation Wind Pressure Humidity
    00:00 +15°C° 0 mm 2 mps 749 mmHg 76%
    01:00 +15°C° 0 mm 2 mps 749 mmHg 76%
    02:00 +15°C° 0 mm 2 mps 749 mmHg 76%
    03:00 +14°C° 0 mm 2 mps 749 mmHg 76%
    04:00 +14°C° 0 mm 2 mps 749 mmHg 77%
    05:00 +13°C° 0 mm 3 mps 749 mmHg 78%
    06:00 +13°C° 0 mm 3 mps 749 mmHg 79%
    07:00 +14°C° 0 mm 4 mps 750 mmHg 77%
    08:00 +15°C° 0 mm 5 mps 750 mmHg 74%
    09:00 +15°C° 0 mm 5 mps 751 mmHg 72%
    10:00 +16°C° 0.2 mm 6 mps 751 mmHg 72%
    11:00 +16°C° 0.2 mm 7 mps 751 mmHg 71%
    12:00 +17°C° 0.2 mm 8 mps 751 mmHg 70%
    13:00 +17°C° 0.2 mm 8 mps 751 mmHg 70%
    14:00 +17°C° 0.2 mm 9 mps 751 mmHg 70%
    15:00 +17°C° 0.2 mm 9 mps 751 mmHg 69%
    16:00 +17°C° 0 mm 9 mps 751 mmHg 71%
    17:00 +16°C° 0 mm 9 mps 751 mmHg 72%
    18:00 +16°C° 0 mm 9 mps 751 mmHg 74%
    19:00 +16°C° 0.3 mm 9 mps 751 mmHg 74%
    20:00 +16°C° 0.3 mm 9 mps 752 mmHg 75%
    21:00 +16°C° 0.3 mm 10 mps 752 mmHg 76%
    22:00 +16°C° 0.6 mm 9 mps 752 mmHg 74%
    23:00 +16°C° 0.6 mm 9 mps 752 mmHg 73%

    21 November, Wednesday

    Time Temperature Precipitation Wind Pressure Humidity
    00:00 +16°C° 0.6 mm 9 mps 752 mmHg 71%
    01:00 +16°C° 0 mm 9 mps 753 mmHg 70%
    02:00 +14°C° 0 mm 10 mps 753 mmHg 69%
    03:00 +14°C° 0 mm 10 mps 753 mmHg 68%
    04:00 +14°C° 0 mm 10 mps 753 mmHg 68%
    05:00 +14°C° 0 mm 10 mps 754 mmHg 68%
    06:00 +14°C° 0 mm 10 mps 754 mmHg 69%
    07:00 +16°C° 0 mm 10 mps 755 mmHg 67%
    08:00 +16°C° 0 mm 10 mps 756 mmHg 65%
    09:00 +17°C° 0 mm 9 mps 757 mmHg 63%
    10:00 +17°C° 0 mm 9 mps 757 mmHg 62%
    11:00 +18°C° 0 mm 9 mps 757 mmHg 61%
    12:00 +18°C° 0 mm 9 mps 757 mmHg 60%
    13:00 +18°C° 0 mm 9 mps 758 mmHg 61%
    14:00 +17°C° 0 mm 9 mps 758 mmHg 62%
    15:00 +17°C° 0 mm 8 mps 758 mmHg 63%
    16:00 +17°C° 0 mm 8 mps 758 mmHg 64%
    17:00 +16°C° 0 mm 7 mps 759 mmHg 65%
    18:00 +16°C° 0 mm 6 mps 759 mmHg 66%
    19:00 +16°C° 0 mm 6 mps 759 mmHg 65%
    20:00 +16°C° 0 mm 6 mps 760 mmHg 64%
    21:00 +16°C° 0 mm 5 mps 760 mmHg 63%
    22:00 +16°C° 0 mm 5 mps 760 mmHg 67%
    23:00 +16°C° 0 mm 5 mps 760 mmHg 70%

    22 November, Thursday

    Time Temperature Precipitation Wind Pressure Humidity
    00:00 +16°C° 0 mm 5 mps 760 mmHg 73%
    01:00 +17°C° 0 mm 4 mps 760 mmHg 76%
    02:00 +17°C° 0 mm 4 mps 760 mmHg 78%
    03:00 +17°C° 0 mm 3 mps 760 mmHg 80%
    04:00 +17°C° 0 mm 3 mps 760 mmHg 79%
    05:00 +17°C° 0 mm 3 mps 761 mmHg 78%
    06:00 +17°C° 0 mm 3 mps 761 mmHg 77%
    07:00 +17°C° 0.1 mm 3 mps 761 mmHg 76%
    08:00 +18°C° 0.1 mm 3 mps 761 mmHg 75%
    09:00 +18°C° 0.1 mm 3 mps 762 mmHg 73%
    10:00 +18°C° 0.2 mm 3 mps 762 mmHg 74%
    11:00 +19°C° 0.2 mm 3 mps 762 mmHg 74%
    12:00 +19°C° 0.2 mm 2 mps 762 mmHg 75%
    13:00 +18°C° 0.3 mm 2 mps 761 mmHg 78%
    14:00 +19°C° 0.3 mm 1 mps 761 mmHg 81%
    15:00 +18°C° 0.3 mm 1 mps 761 mmHg 84%
    16:00 +18°C° 0 mm 1 mps 762 mmHg 86%
    17:00 +16°C° 0 mm 1 mps 762 mmHg 89%
    18:00 +16°C° 0 mm 1 mps 762 mmHg 91%
    19:00 +16°C° 0 mm 1 mps 762 mmHg 91%
    20:00 +15°C° 0 mm 1 mps 763 mmHg 91%
    21:00 +15°C° 0 mm 1 mps 763 mmHg 91%
    22:00 +15°C° 0 mm 1 mps 763 mmHg 91%
    23:00 +15°C° 0 mm 1 mps 763 mmHg 91%

    23 November, Friday

    Time Temperature Precipitation Wind Pressure Humidity
    00:00 +16°C° 0 mm 1 mps 763 mmHg 90%
    01:00 +15°C° 0 mm 1 mps 763 mmHg 90%
    02:00 +15°C° 0 mm 1 mps 763 mmHg 90%
    03:00 +15°C° 0 mm 1 mps 763 mmHg 90%
    04:00 +15°C° 0 mm 1 mps 763 mmHg 89%
    05:00 +15°C° 0 mm 1 mps 763 mmHg 89%
    06:00 +15°C° 0 mm 1 mps 763 mmHg 89%
    07:00 +16°C° 0 mm 2 mps 763 mmHg 84%
    08:00 +17°C° 0 mm 2 mps 764 mmHg 80%
    09:00 +18°C° 0 mm 3 mps 764 mmHg 75%
    10:00 +19°C° 0 mm 3 mps 764 mmHg 72%
    11:00 +20°C° 0 mm 3 mps 764 mmHg 68%
    12:00 +21°C° 0 mm 2 mps 763 mmHg 64%
    13:00 +20°C° 0 mm 3 mps 763 mmHg 66%
    14:00 +20°C° 0 mm 3 mps 762 mmHg 67%
    15:00 +20°C° 0 mm 3 mps 762 mmHg 68%
    16:00 +19°C° 0 mm 3 mps 762 mmHg 73%
    17:00 +18°C° 0 mm 3 mps 762 mmHg 79%
    18:00 +17°C° 0 mm 3 mps 762 mmHg 84%
    19:00 +17°C° 0 mm 3 mps 762 mmHg 83%
    20:00 +17°C° 0 mm 3 mps 762 mmHg 82%
    21:00 +17°C° 0 mm 3 mps 761 mmHg 81%
    22:00 +18°C° 0 mm 3 mps 761 mmHg 80%
    23:00 +18°C° 0 mm 3 mps 760 mmHg 79%
    Show more